カタログに戻る

SL-8 R/B

運用中PO
NORAD 11681·ROCKET BODY·🇷🇺 Russia

打ち上げ Jan 25, 1980 から Plesetsk Cosmodrome

Loading…

次のパス (今後24時間)

TLE

最新Source: Space-Track

元期: Sep 14, 2026, 09:35 UTC

1 11681U 80007B   26257.39962480  .00000116  00000-0  10454-3 0  9990
2 11681  82.9278  67.1279 0034843 285.6249  93.4868 13.75742615336512

AllMySatでSL-8 R/Bをリアルタイム追跡

Download on the App Store